User: anonymous   Login
Location: *
(17.3280°S, 114.7300°W)
Time: 19:52:34
(UTC+00:00)
Language:

ASTEX 1 - Orbit

View from above orbital plane
View from above orbital plane
View from above satellite
View from above satellite

Ground track
Ground track

The orbit data is extracted from the following two-line orbital elements,

1  5560U 71089A   20304.26632928 +.00000102 +00000-0 +27685-4 0  9993
2  5560 092.7176 240.2394 0015620 188.2072 171.8880 14.48091152579038
Epoch (UTC): 30 October 2020 06:23:30
Eccentricity: 0.0015620
inclination: 92.7176°
perigee height: 721 km
apogee height: 743 km
right ascension of ascending node: 240.2394°
argument of perigee: 188.2072°
revolutions per day: 14.48091152
mean anomaly at epoch: 171.8880°
orbit number at epoch: 57903

The dashed part of the orbit path shows where the satellite is in the earth's shadow,  

DLR